Regional Weather Roundup
Issued by NWS

Home | Current Version | Previous Version | Text Only | Print | Product List | Glossary On
Versions: 1 2 3 4 5 6 7 8 9 10 11 12 13 14 15 16 17 18 19 20 21 22 23 24 25 26 27 28 29 30 31 32 33 34 35 36 37 38 39 40 41 42 43 44 45 46 47 48 49 50
000
ASUS44 KFWD 290415
RWRTX
NORTH TEXAS HOURLY WEATHER ROUNDUP
NATIONAL WEATHER SERVICE FORT WORTH TX
1100 PM CDT SAT MAR 28 2015

NOTE: "FAIR" INDICATES FEW OR NO CLOUDS BELOW 12,000 FEET WITH NO
SIGNIFICANT WEATHER AND/OR OBSTRUCTIONS TO VISIBILITY.

TXZ118-119-290500-
DALLAS/FORT WORTH METROPLEX

CITY           SKY/WX    TMP DP  RH WIND       PRES   REMARKS
DFW AIRPORT    PTCLDY    70  45  40 S10       29.99S
DALLAS LOVE    PTCLDY    72  44  36 S14       30.01R
FTW MEACHAM    CLEAR     69  45  41 SE10      29.98R
DAL-EXECUTIVE  CLEAR     68  45  43 S9        30.00R
FTW-ALLIANCE   CLEAR     69  44  40 S10       29.98S
FTW-NAS-JRB    CLEAR     73  44  35 SE8       30.02R
FTW-SPINKS     CLEAR     69  44  41 S12       30.00S
ARLINGTON      CLEAR     69  43  38 SE10      30.00R
ADDISON        CLEAR     72  43  35 S13       30.02S
MESQUITE       CLEAR     65  47  50 SE9       30.02S
LANCASTER      CLEAR     60  46  61 SE7       30.02S
$$

TXZ091>094-102>105-117-120-121-131>134-290500-
NORTH CENTRAL TEXAS

CITY           SKY/WX    TMP DP  RH WIND       PRES   REMARKS
SHRMAN/DENISON CLEAR     66  52  59 E15       30.05R
GAINESVILLE    CLEAR     64  50  59 E8        30.03S
BOWIE          CLEAR     67  49  52 E7        29.99S
BRIDGEPORT     CLEAR     67  51  57 SE6       29.99S
DECATUR        CLEAR     65  47  52 SE9       29.99F
DENTON         CLEAR     69  47  45 SE8       29.99S
MCKINNEY       CLEAR     66  49  54 SE8       30.03R
GREENVILLE     CLEAR     64  46  52 E6        30.05R
ROCKWALL       CLEAR     66  49  52 SE8       30.02S
TERRELL        CLEAR     67  47  48 SE5       30.04R
WAXAHACHIE     CLEAR     62  48  59 SE6       30.03S
CLEBURNE       CLEAR     64  46  52 SE9       30.02R
GRANBURY         N/A     68  47  47 E8        29.99R
$$

TXZ083>090-098>101-113>116-127>130-139>142-154-155-290500-
WESTERN NORTH TEXAS

CITY           SKY/WX    TMP DP  RH WIND       PRES   REMARKS
WICHITA FALLS  CLEAR     62  50  64 E10       29.97R
WF-KICKAPOO    CLEAR     68  50  53 E10       29.97S
VERNON         CLEAR     65  45  48 E8        29.97S
ABILENE        CLEAR     74  37  26 S18G24    29.96S
ABILENE-DYESS  CLEAR     74  42  31 SW18      29.95R
BRECKENRIDGE   CLEAR     73  38  28 S13       29.94S
GRAHAM         CLEAR     70  47  43 CALM      29.94R
MINERAL WELLS  CLEAR     65  47  52 SE12      29.95R
STEPHENVILLE   CLEAR     66  40  38 S7        30.01S
COMANCHE       CLEAR     70  42  35 S17       29.99S
COLEMAN        CLEAR     68  40  35 S13G18    30.00S
BRADY          CLEAR     66  37  34 S6        30.04R
$$

TXZ143>147-156>162-174-175-290500-
CENTRAL TEXAS

CITY           SKY/WX    TMP DP  RH WIND       PRES   REMARKS
WACO           CLEAR     63  48  58 S10       30.02R
WACO-TSTC      CLEAR     63  46  55 S7        30.02S
WACO-MCGREGOR  CLEAR     66  43  42 S14       30.03S
HILLSBORO      CLEAR     67  44  44 SE10      30.02R
CORSICANA      CLEAR     66  47  50 SE10      30.05R
MEXIA          CLEAR     64  46  52 S7        30.04R
HEARNE         CLEAR     64  46  50 SE8       30.07S
CAMERON        CLEAR     66  45  45 S14G20    30.05R
TEMPLE         CLEAR     64  43  45 S16       30.04R
KILLEEN        CLEAR     66  43  42 S9        30.04R
KILLEEN-SKYLRK CLEAR     64  41  42 MISG      30.05R
FORT HOOD      CLEAR     68  42  39 S10       30.03R
GATESVILLE     CLEAR     70  43  37 S15       30.04S
HAMILTON       CLEAR     65  40  39 S13       30.03S
$$

TXZ095>097-106>112-122>126-135>138-148>153-164>167-290500-
EAST TEXAS

CITY           SKY/WX    TMP DP  RH WIND       PRES   REMARKS
SULPHUR SPRNGS CLEAR     64  48  56 E14       30.09S
MOUNT PLEASANT CLEAR     63  46  55 E12       30.11S
GILMER         CLEAR     63  48  58 CALM      30.09R
MINEOLA        CLEAR     57  52  82 CALM      30.07S
TYLER          CLEAR     66  46  48 SE8       30.06S
LONGVIEW       CLEAR     61  49  64 CALM      30.08R
MARSHALL       PTCLDY    64  49  60 E6        30.14R
ATHENS         CLEAR     59  46  63 CALM      30.05S
PALESTINE      CLEAR     66  46  49 S8        30.08S
JACKSONVILLE   CLEAR     67  45  45 S7        30.10S
HENDERSON      CLEAR     57  51  78 CALM      30.10R
NACOGDOCHES    CLEAR     64  48  55 S6        30.10S
LUFKIN         CLEAR     65  53  65 S7        30.10R
$$

SUPPLEMENTAL OBSERVATIONS (CENTRAL)

CITY           SKY/WX    TMP DP  RH WIND       PRES   REMARKS
LAKE TEXOMA      N/A     64  48  55 E9          N/A
CADDO GRASSLND   N/A     63  46  55 E7G16       N/A
PAT MAYSE LAKE   N/A     57  43  58 NE12        N/A
LAKE LIMESTONE   N/A     64  41  42 S6          N/A
MCGREGOR         N/A     63  45  51 SW6         N/A
TEMPLE           N/A     64  45  48 S8          N/A
$$

SUPPLEMENTAL OBSERVATIONS (WEST)

CITY           SKY/WX    TMP DP  RH WIND       PRES   REMARKS
MILLERS CREEK    N/A     64  48  55 E6          N/A
POSSUM KINGDOM   N/A     70  39  32 S7          N/A
LBJ GRASSLAND    N/A     68  48  49 E8          N/A
GRANBURY         N/A     66  45  45 E7          N/A
COMANCHE         N/A     72  39  30 S18G24      N/A
HAMBY            N/A     66  39  37 S9          N/A
COLORADO BEND    N/A     66  37  34 S8          N/A
$$

SUPPLEMENTAL OBSERVATIONS (EAST)

CITY           SKY/WX    TMP DP  RH WIND       PRES   REMARKS
CLARKSVILLE      N/A     55  43  62 E12         N/A
TEXARKANA        N/A     52  37  58 E6G14       N/A
LINDEN           N/A     59  43  55 E8          N/A
CADDO LAKE       N/A     61  45  55 E3          N/A
GILMER           N/A     63  46  55 E5          N/A
HENDERSON        N/A     57  48  72 CALM        N/A
LUFKIN           N/A     63  50  63 MISG        N/A
N SABINE NF      N/A     61  54  77 MISG        N/A
S SABINE NF      N/A     61  54  77 CALM        N/A
$$

SUPPLEMENTAL OBSERVATIONS ARE A COLLECTION OF AUTOMATED INSTRUMENTS
THAT ARE MAINTAINED BY A VARIETY OF FEDERAL AND STATE AGENCIES.
CERTAIN ELEMENTS...SUCH AS HUMIDITY VALUES AND SUSTAINED WIND
SPEEDS...MAY BE APPROXIMATED.




USA.gov is the U.S. government's official web portal to all federal, state and local government web resources and services.